EW3861 Weather Reports


time (UTC)temp
F
wind
direction
speed
knots
gust
knots
rain 1hr
in
rain 24hr
in
rain mn
in
humidity
%
barometer
mb
20260506030026 58 221 0.0 0.0 0.00 0.00 0.00 75 1010.4
20260506024633 59 223 0.0 0.0 0.00 0.00 0.00 74 1010.2
20260506023049 59 220 0.0 0.0 0.00 0.00 0.00 73 1010.2
20260506021505 59 209 0.0 0.0 0.00 0.00 0.00 73 1010.3
20260506020055 60 274 0.0 0.0 0.00 0.00 0.00 73 1010.2
20260506014536 60 225 0.0 0.0 0.00 0.00 0.00 73 1010.2
20260506013125 60 205 0.0 0.0 0.00 0.00 0.00 73 1010.0
20260506011547 59 219 0.0 0.0 0.00 0.00 0.00 74 1009.8
20260506010004 59 247 0.0 0.0 0.00 0.00 0.00 75 1009.8
20260506004503 59 304 0.0 0.0 0.00 0.00 0.00 75 1009.6
20260506003057 59 234 0.0 0.0 0.00 0.00 0.00 74 1009.5
20260506001518 59 226 0.0 0.0 0.00 0.00 0.00 74 1009.2
20260506000111 60 221 0.0 0.0 0.00 0.00 0.00 73 1008.9
20260505234530 60 240 0.0 0.0 0.00 0.00 0.00 73 1008.6
20260505233124 60 220 0.0 0.0 0.00 0.00 0.00 72 1008.6
20260505231559 61 219 0.0 0.0 0.00 0.00 0.00 71 1008.4
20260505230019 61 194 0.0 0.0 0.00 0.00 0.00 71 1008.0
20260505224630 62 240 0.0 0.0 0.00 0.00 0.00 70 1007.8
20260505223047 63 290 0.0 0.0 0.00 0.00 0.00 68 1007.8
20260505221634 64 221 0.0 0.0 0.00 0.00 0.00 66 1007.8
20260505220059 66 244 0.0 0.0 0.00 0.00 0.00 63 1007.8
20260505214554 67 196 0.0 0.0 0.00 0.00 0.00 61 1007.5
20260505213011 68 214 0.0 0.0 0.00 0.00 0.00 60 1007.3
20260505211602 69 213 0.0 0.0 0.00 0.00 0.00 59 1007.4
20260505210021 69 182 0.0 0.0 0.00 0.00 0.00 57 1007.4
20260505204631 71 221 0.0 0.0 0.00 0.00 0.00 56 1007.3
20260505203055 71 207 0.0 0.0 0.00 0.00 0.00 55 1007.5
20260505201511 70 233 0.0 0.0 0.00 0.00 0.00 55 1007.5
20260505200104 72 230 0.0 0.0 0.00 0.00 0.00 55 1007.5
20260505194534 71 204 0.0 0.0 0.00 0.00 0.00 54 1007.5
20260505193126 72 219 0.0 0.0 0.00 0.00 0.00 54 1007.7
20260505191606 73 238 0.0 0.0 0.00 0.00 0.00 53 1007.5
20260505190012 74 231 0.0 0.0 0.00 0.00 0.00 51 1007.7
20260505184636 76 204 0.0 0.0 0.00 0.00 0.00 49 1007.5
20260505183051 76 220 0.0 0.0 0.00 0.00 0.00 50 1007.5
20260505181512 75 226 0.0 0.0 0.00 0.00 0.00 51 1007.9
20260505180010 74 221 0.0 0.0 0.00 0.00 0.00 53 1008.0
20260505174612 74 294 0.0 0.0 0.00 0.00 0.00 52 1008.2
20260505173021 75 272 0.0 0.0 0.00 0.00 0.00 52 1008.5
20260505171611 74 222 0.0 0.0 0.00 0.00 0.00 57 1008.4
20260505170025 73 202 0.0 0.0 0.00 0.00 0.00 56 1008.5
20260505164632 73 153 0.0 0.0 0.00 0.00 0.00 58 1008.8
20260505163046 73 229 0.0 0.0 0.00 0.00 0.00 56 1008.9
20260505161508 73 196 0.0 0.0 0.00 0.00 0.00 57 1009.0
20260505153125 70 235 0.0 0.0 0.00 0.00 0.00 60 1009.1
20260505151546 69 219 0.0 0.0 0.00 0.00 0.00 61 1009.1
20260505140111 64 229 0.0 0.0 0.00 0.00 0.00 69 1009.6
20260505124512 59 229 0.0 0.0 0.00 0.00 0.00 80 1010.0
20260505123100 57 219 0.0 0.0 0.00 0.00 0.00 82 1010.0
20260505121517 55 234 0.0 0.0 0.00 0.00 0.00 84 1009.8
20260505120109 54 242 0.0 0.0 0.00 0.00 0.00 87 1009.8
20260505114521 53 206 0.0 0.0 0.00 0.00 0.00 90 1009.9
20260505113113 52 237 0.0 0.0 0.00 0.00 0.00 93 1009.9
20260505111529 50 211 0.0 0.0 0.00 0.00 0.00 95 1009.9
20260505101610 47 211 0.0 0.0 0.00 0.00 0.00 94 1009.5
20260505100052 47 211 0.0 0.0 0.00 0.00 0.00 94 1009.6
20260505094629 47 211 0.0 0.0 0.00 0.00 0.00 94 1009.6
20260505093101 47 211 0.0 0.0 0.00 0.00 0.00 94 1009.7
20260505091513 47 211 0.0 0.0 0.00 0.00 0.00 93 1009.8
20260505090108 47 211 0.0 0.0 0.00 0.00 0.00 93 1009.8
20260505084545 46 211 0.0 0.0 0.00 0.00 0.00 92 1009.8
20260505083051 46 211 0.0 0.0 0.00 0.00 0.00 91 1009.9
20260505081505 47 211 0.0 0.0 0.00 0.00 0.00 91 1009.9
20260505074550 47 211 0.0 0.0 0.00 0.00 0.00 90 1009.9
20260505073028 47 211 0.0 0.0 0.00 0.00 0.00 89 1010.0
20260505071554 48 211 0.0 0.0 0.00 0.00 0.00 89 1010.0
20260505070006 48 211 0.0 0.0 0.00 0.00 0.00 88 1010.0
20260505064602 48 211 0.0 0.0 0.00 0.00 0.00 88 1010.0
20260505063017 49 211 0.0 0.0 0.00 0.00 0.00 88 1010.2
20260505061601 49 212 0.0 0.0 0.00 0.00 0.00 87 1010.2
20260505060016 49 213 0.0 0.0 0.00 0.00 0.00 87 1010.2
20260505054635 50 215 0.0 0.0 0.00 0.00 0.00 87 1010.2
20260505053044 50 215 0.0 0.0 0.00 0.00 0.00 86 1010.2
20260505051633 50 213 0.0 0.0 0.00 0.00 0.00 85 1010.2
20260505041522 51 219 0.0 0.0 0.00 0.00 0.00 81 1010.5
20260505040009 51 216 0.0 0.0 0.00 0.00 0.00 80 1010.4
20260505034635 52 227 0.0 0.0 0.00 0.00 0.00 79 1010.4
20260505033054 52 219 0.0 0.0 0.00 0.00 0.00 78 1010.2
20260505031509 52 224 0.0 0.0 0.00 0.00 0.00 77 1010.3